Ashland, WI

7:32 AM CDT on October 24, 2017 (GMT -0500)
Kennedy Memorial

Weather History for KASX - January, 2013

Change the Weather History Date:

Wednesday, January 9, 2013

  Actual Average Record
Temperature  
Mean Temperature 30 °F -  
Max Temperature 35 °F 18 °F 46 °F (1986)
Min Temperature 21 °F 0 °F -33 °F (1977)
Degree Days  
Heating Degree Days 35    
Moisture  
Dew Point 21 °F    
Average Humidity 66    
Maximum Humidity 75    
Minimum Humidity 54    
Precipitation  
Precipitation 0.00 in - - ()
Sea Level Pressure  
Sea Level Pressure 30.07 in    
Wind  
Wind Speed 15 mph (WSW)    
Max Wind Speed 24 mph    
Max Gust Speed 46 mph    
Visibility 10 miles    
Events      
Averages and records for this station are not official NWS values.
T = Trace of Precipitation, MM = Missing Value Source: NWS Daily Summary

Daily Weather History Graph

Daily Weather History Graph

Search for Another Location

Airport or City:

Trip Planner

Search our weather history database for the weather conditions in past years. The results will help you decide how hot, cold, wet, or windy it might be!

Date:

Astronomy

Jan. 09, 2013 Rise Set
Actual Time 7:46 AM CST 4:35 PM CST
Civil Twilight 7:11 AM CST 5:10 PM CST
Nautical Twilight 6:34 AM CST 5:48 PM CST
Astronomical Twilight 5:57 AM CST 6:24 PM CST
Moon 5:26 AM CST (1/9) 2:37 PM CST (1/9)
Length of Visible Light 9h 58m
Length of Day
8h 49m
Waning Crescent, 6% of the Moon is Illuminated
Jan 9
Waning Crescent
Jan 11
New
Jan 18
First Quarter
Jan 26
Full
Feb 3
Last Quarter

Hourly Weather History & Observations

Time (CST) Temp. Windchill Dew Point Humidity Pressure Visibility Wind Dir Wind Speed Gust Speed Precip Events Conditions
12:53 AM 33.1 °F 22.2 °F 26.1 °F 75% 29.77 in 9.0 mi WSW 17.3 mph 26.5 mph N/A   Overcast
1:53 AM 33.1 °F 23.4 °F 26.1 °F 75% 29.78 in 10.0 mi WSW 13.8 mph - N/A   Overcast
2:44 AM 33.8 °F 23.9 °F 26.6 °F 75% 29.75 in 10.0 mi WSW 15.0 mph 21.9 mph N/A   Overcast
2:53 AM 33.1 °F 23.9 °F 26.1 °F 75% 29.79 in 10.0 mi WSW 12.7 mph 21.9 mph N/A   Mostly Cloudy
3:53 AM 32.0 °F 23.0 °F 24.1 °F 73% 29.79 in 10.0 mi SW 11.5 mph - N/A   Clear
4:53 AM 32.0 °F 21.2 °F 24.1 °F 73% 29.80 in 10.0 mi SW 16.1 mph 28.8 mph N/A   Mostly Cloudy
5:53 AM 33.1 °F 21.5 °F 24.1 °F 70% 29.79 in 10.0 mi WSW 19.6 mph 27.6 mph N/A   Overcast
6:53 AM 33.1 °F 21.2 °F 24.1 °F 70% 29.82 in 10.0 mi WSW 20.7 mph 31.1 mph N/A   Overcast
7:53 AM 34.0 °F 23.0 °F 21.9 °F 61% 29.88 in 10.0 mi West 18.4 mph 35.7 mph N/A   Overcast
8:53 AM 33.1 °F 20.3 °F 21.0 °F 61% 29.94 in 10.0 mi West 24.2 mph 46.0 mph N/A   Overcast
9:53 AM 32.0 °F 19.5 °F 19.9 °F 61% 29.99 in 10.0 mi WNW 21.9 mph 29.9 mph N/A   Overcast
10:53 AM 33.1 °F 21.9 °F 21.0 °F 61% 30.04 in 10.0 mi West 18.4 mph 34.5 mph N/A   Overcast
11:53 AM 34.0 °F 23.4 °F 21.9 °F 61% 30.06 in 10.0 mi West 17.3 mph 24.2 mph N/A   Overcast
12:53 PM 34.0 °F 23.4 °F 21.0 °F 59% 30.09 in 10.0 mi West 17.3 mph 31.1 mph N/A   Overcast
1:53 PM 34.0 °F 23.0 °F 21.0 °F 59% 30.16 in 10.0 mi West 18.4 mph 24.2 mph N/A   Partly Cloudy
2:53 PM 35.1 °F 24.8 °F 21.0 °F 57% 30.21 in 10.0 mi WSW 17.3 mph 24.2 mph N/A   Clear
3:53 PM 35.1 °F 26.4 °F 19.9 °F 54% 30.25 in 10.0 mi WSW 12.7 mph 19.6 mph N/A   Clear
4:53 PM 32.0 °F 24.2 °F 19.9 °F 61% 30.29 in 10.0 mi WSW 9.2 mph - N/A   Clear
5:53 PM 30.9 °F 22.2 °F 19.0 °F 61% 30.32 in 10.0 mi WSW 10.4 mph - N/A   Clear
6:53 PM 28.0 °F 22.8 °F 18.0 °F 66% 30.33 in 10.0 mi SSW 4.6 mph - N/A   Clear
7:53 PM 28.0 °F 20.8 °F 18.0 °F 66% 30.35 in 10.0 mi WSW 6.9 mph - N/A   Clear
8:53 PM 27.0 °F 18.7 °F 17.1 °F 66% 30.38 in 10.0 mi SW 8.1 mph - N/A   Clear
9:53 PM 25.0 °F 20.7 °F 16.0 °F 69% 30.38 in 10.0 mi South 3.5 mph - N/A   Clear
10:53 PM 25.0 °F - 16.0 °F 69% 30.36 in 10.0 mi Calm Calm - N/A   Clear
11:53 PM 21.9 °F 17.2 °F 15.1 °F 75% 30.35 in 10.0 mi SSE 3.5 mph - N/A   Clear